This demonstration page uses our WeatherBlox Daily Observations layout. Learn more.

Left ArrowRight Arrow

Hourly Observations for June 14, 2015

Temp ( °F °C ) Dew Point ( °F °C ) Humidity (%) Winds ( mph kmh ) Pressure ( in mb ) Visibility ( mi km ) Precip ( " mm )
12:51 am 00:51 Clear 80 26.7 37 2.8 21 21 NW 8 13 29.59 1002 10 16 0.00 0.00
1:51 am 01:51 Clear 75 23.9 38 3.3 26 26 NNW 6 9 29.60 1003 10 16 0.00 0.00
2:51 am 02:51 Clear 71 21.7 38 3.3 30 30 E 8 13 29.60 1002 10 16 0.00 0.00
3:51 am 03:51 Clear 71 21.7 39 3.9 31 31 SSE 5 7 29.62 1003 10 16 0.00 0.00
4:51 am 04:51 Clear 67 19.4 39 3.9 36 36 NNE 3 6 29.64 1004 10 16 0.00 0.00
5:51 am 05:51 Sunny 68 20 40 4.4 36 36 VRB 3 6 29.65 1004 10 16 0.00 0.00
6:51 am 06:51 Sunny 77 25 41 5 28 28 ESE 3 6 29.66 1004 10 16 0.00 0.00
7:51 am 07:51 Sunny 81 27.2 42 5.6 25 25 ESE 3 6 29.67 1005 10 16 0.00 0.00
8:51 am 08:51 Sunny 86 30 43 6.1 22 22 VRB 3 6 29.67 1005 10 16 0.00 0.00
9:51 am 09:51 Sunny 90 32.2 43 6.1 19 19 VRB 6 9 29.66 1004 10 16 0.00 0.00
10:51 am 10:51 Sunny 93 33.9 43 6.1 18 18 undefined N/A 29.65 1004 10 16 0.00 0.00
11:51 am 11:51 Sunny 95 35 42 5.6 16 16 undefined N/A 29.64 1004 10 16 0.00 0.00
12:51 pm 12:51 Sunny 98 36.7 38 3.3 12 12 WNW 9 15 29.61 1003 10 16 0.00 0.00
1:51 pm 13:51 Sunny 99 37.2 40 4.4 13 13 VRB 6 9 29.59 1002 10 16 0.00 0.00
2:51 pm 14:51 Sunny 101 38.3 38 3.3 11 11 WNW 12 19 29.57 1001 10 16 0.00 0.00
3:51 pm 15:51 Sunny 102 38.9 38 3.3 11 11 NW 9 15 29.55 1001 10 16 0.00 0.00
4:51 pm 16:51 Sunny 97 36.1 42 5.6 15 15 NNE 21 33 29.56 1001 10 16 0.00 0.00
5:51 pm 17:51 Sunny 94 34.4 43 6.1 17 17 NNE 18 30 29.57 1001 10 16 0.00 0.00
6:51 pm 18:51 Sunny 94 34.4 41 5 16 16 N 10 17 29.57 1001 10 16 0.00 0.00
7:51 pm 19:51 Clear 89 31.7 41 5 19 19 WSW 6 9 29.60 1002 10 16 0.00 0.00
8:51 pm 20:51 Clear 87 30.6 41 5 20 20 NW 6 9 29.61 1003 10 16 0.00 0.00
9:51 pm 21:51 Clear 84 28.9 42 5.6 23 23 WNW 8 13 29.63 1003 10 16 0.00 0.00
10:51 pm 22:51 Clear 82 27.8 42 5.6 24 24 NNW 7 11 29.64 1004 10 16 0.00 0.00
11:51 pm 23:51 Clear 81 27.2 42 5.6 25 25 NNW 7 11 29.65 1004 10 16 0.00 0.00

Powered by AerisWeather